New Philadelphia, OH

2:14 PM EST on December 18, 2017 (GMT -0500)
Clever

Weather History for KPHD - October, 2015

Change the Weather History Date:

Monday, October 19, 2015

  Actual Average Record
Temperature  
Mean Temperature 44 °F 52 °F  
Max Temperature 62 °F 63 °F 79 °F (1963)
Min Temperature 25 °F 40 °F 25 °F (2015)
Degree Days  
Heating Degree Days 21 14  
Month to date heating degree days 209 207  
Since 1 July heating degree days 254 313  
Cooling Degree Days 0 0  
Month to date cooling degree days 0 9  
Year to date cooling degree days 864 697  
Moisture  
Dew Point 28 °F    
Average Humidity 60    
Maximum Humidity 92    
Minimum Humidity 27    
Precipitation  
Precipitation 0.00 in 0.09 in 1.75 in (2011)
Month to date precipitation 0.60 1.69  
Year to date precipitation 24.74 31.90  
Sea Level Pressure  
Sea Level Pressure 30.39 in    
Wind  
Wind Speed 5 mph (SSE)    
Max Wind Speed 16 mph    
Max Gust Speed 21 mph    
Visibility 10 miles    
Events      
T = Trace of Precipitation, MM = Missing Value Source: NWS Daily Summary

Daily Weather History Graph

Daily Weather History Graph

Search for Another Location

Airport or City:

Trip Planner

Search our weather history database for the weather conditions in past years. The results will help you decide how hot, cold, wet, or windy it might be!

Date:

Astronomy

Oct. 19, 2015 Rise Set
Actual Time 7:40 AM EDT 6:40 PM EDT
Civil Twilight 7:13 AM EDT 7:07 PM EDT
Nautical Twilight 6:41 AM EDT 7:39 PM EDT
Astronomical Twilight 6:09 AM EDT 8:10 PM EDT
Moon 1:30 PM EDT (10/19) 11:45 PM EDT (10/19)
Length of Visible Light 11h 54m
Length of Day
10h 59m
Waxing Crescent, 37% of the Moon is Illuminated
Oct 19
Waxing Crescent
Oct 20
First Quarter
Oct 27
Full
Nov 3
Last Quarter
Nov 11
New

Hourly Weather History & Observations

Time (EDT) Temp. Windchill Dew Point Humidity Pressure Visibility Wind Dir Wind Speed Gust Speed Precip Events Conditions
12:53 AM 28.0 °F - 25.0 °F 88% 30.47 in 10.0 mi Calm Calm - N/A   Clear
1:53 AM 28.0 °F - 25.0 °F 88% 30.48 in 10.0 mi Calm Calm - N/A   Clear
2:53 AM 27.0 °F - 24.1 °F 89% 30.48 in 10.0 mi Calm Calm - N/A   Clear
3:53 AM 28.0 °F - 25.0 °F 88% 30.48 in 10.0 mi Calm Calm - N/A   Clear
4:53 AM 26.1 °F - 24.1 °F 92% 30.49 in 10.0 mi Calm Calm - N/A   Clear
5:53 AM 26.1 °F - 25.0 °F 96% 30.49 in 10.0 mi Calm Calm - N/A   Clear
6:53 AM 26.1 °F 20.5 °F 24.1 °F 92% 30.50 in 10.0 mi ESE 4.6 mph - N/A   Clear
7:53 AM 27.0 °F 21.6 °F 25.0 °F 92% 30.49 in 10.0 mi SE 4.6 mph - N/A   Clear
8:53 AM 30.9 °F 26.2 °F 28.9 °F 92% 30.49 in 10.0 mi SE 4.6 mph - N/A   Clear
9:53 AM 37.9 °F 32.7 °F 30.0 °F 73% 30.48 in 10.0 mi ESE 6.9 mph - N/A   Clear
10:53 AM 46.9 °F - 30.9 °F 54% 30.46 in 10.0 mi SE 5.8 mph - N/A   Clear
11:53 AM 53.1 °F - 30.0 °F 41% 30.43 in 10.0 mi SSW 9.2 mph - N/A   Clear
12:53 PM 55.9 °F - 28.9 °F 36% 30.41 in 10.0 mi SSW 12.7 mph 19.6 mph N/A   Clear
1:53 PM 59.0 °F - 28.0 °F 31% 30.37 in 10.0 mi SSW 13.8 mph 19.6 mph N/A   Clear
2:53 PM 61.0 °F - 28.9 °F 30% 30.34 in 10.0 mi SW 9.2 mph - N/A   Clear
3:53 PM 62.1 °F - 28.9 °F 29% 30.30 in 10.0 mi Variable 4.6 mph - N/A   Clear
4:53 PM 62.1 °F - 28.9 °F 29% 30.29 in 10.0 mi South 9.2 mph 17.3 mph N/A   Clear
5:53 PM 60.1 °F - 28.9 °F 31% 30.28 in 10.0 mi SSW 9.2 mph - N/A   Clear
6:53 PM 57.9 °F - 28.0 °F 32% 30.28 in 10.0 mi South 6.9 mph - N/A   Clear
7:53 PM 54.0 °F - 28.9 °F 38% 30.28 in 10.0 mi SSE 4.6 mph - N/A   Clear
8:53 PM 53.1 °F - 30.0 °F 41% 30.28 in 10.0 mi SE 4.6 mph - N/A   Clear
9:53 PM 53.1 °F - 30.0 °F 41% 30.26 in 10.0 mi SSE 4.6 mph - N/A   Clear
10:53 PM 54.0 °F - 28.9 °F 38% 30.26 in 10.0 mi Variable 5.8 mph - N/A   Clear
11:53 PM 53.1 °F - 28.9 °F 40% 30.25 in 10.0 mi Variable 4.6 mph - N/A   Clear